This is the latest recevied weather packets stored in our database for station/object KS5S. If no packets are shown the sender has not sent any weather packets the latest 10 day(s).
| Time | Temp. | Humidity | Pressure | Rain* | Wind** | Luminosity | Snow |
|---|---|---|---|---|---|---|---|
| 1777473907 | 16.67° C | 85% | 1013.6 hPa | 0 mm | - | 40 W/m² | - |
| 1777473605 | 16.67° C | 85% | 1013.6 hPa | 0 mm | - | 38 W/m² | - |
| 1777473300 | 16.67° C | 84% | 1013.3 hPa | 0 mm | - | 44 W/m² | - |
| 1777472995 | 16.67° C | 84% | 1013.2 hPa | 0 mm | - | 44 W/m² | - |
| 1777472693 | 16.67° C | 84% | 1013.3 hPa | 0 mm | - | 38 W/m² | - |
| 1777472389 | 16.67° C | 83% | 1013.4 hPa | 0 mm | - | 39 W/m² | - |
| 1777472087 | 16.67° C | 84% | 1013.1 hPa | 0 mm | - | 36 W/m² | - |
| 1777471782 | 16.67° C | 82% | 1012.9 hPa | 0 mm | - | 36 W/m² | - |
| 1777471478 | 16.67° C | 83% | 1012.7 hPa | 0 mm | - | 47 W/m² | - |
| 1777471175 | 16.67° C | 83% | 1012.6 hPa | 0 mm | - | 46 W/m² | - |
| 1777470872 | 16.67° C | 82% | 1012.6 hPa | 0 mm | - | 54 W/m² | - |
| 1777470569 | 16.67° C | 82% | 1013 hPa | 0 mm | - | 47 W/m² | - |
| 1777470265 | 16.67° C | 81% | 1013 hPa | 0 mm | - | 48 W/m² | - |
| 1777469962 | 16.67° C | 82% | 1012.9 hPa | 0 mm | - | 44 W/m² | - |
| 1777469657 | 16.67° C | 82% | 1012.9 hPa | 0 mm | - | 45 W/m² | - |
| 1777469353 | 16.67° C | 81% | 1013.1 hPa | 0 mm | - | 37 W/m² | - |
| 1777469049 | 16.67° C | 81% | 1012.5 hPa | 0 mm | - | 31 W/m² | - |
| 1777468744 | 17.22° C | 81% | 1012.7 hPa | 0 mm | - | 38 W/m² | - |
| 1777468440 | 17.22° C | 82% | 1012.6 hPa | 0 mm | - | 37 W/m² | - |
| 1777468136 | 17.22° C | 82% | 1012.5 hPa | 0 mm | - | 31 W/m² | - |
| 1777467833 | 17.22° C | 83% | 1012.6 hPa | 0 mm | - | 30 W/m² | - |
| 1777467528 | 17.22° C | 83% | 1012.5 hPa | 0 mm | - | 28 W/m² | - |
| 1777467223 | 17.22° C | 84% | 1012.3 hPa | 0 mm | - | 23 W/m² | - |
| 1777466920 | 17.22° C | 85% | 1012.4 hPa | 0 mm | - | 21 W/m² | - |
| 1777466618 | 17.22° C | 84% | 1012.5 hPa | 0 mm | - | 15 W/m² | - |
* Rain latest hour (hover to see other rain measurements)
** Current wind speed in m/s (hover to see current wind gust speed)